User: anonymous   Login
Location: Observatorio Las Palmas
(29.0667°N, 110.9333°W)
Time: 05:56:09
(UTC-07:00)
Language:

NOAA 19 - Orbit

View from above orbital plane
View from above orbital plane
View from above satellite
View from above satellite

Ground track
Ground track

The orbit data is extracted from the following two-line orbital elements,

1 33591U 09005A   17145.52563670  .00000064  00000-0  59933-4 0  9990
2 33591 099.0907 112.0311 0013665 340.4263 019.6382 14.12181879427193
Epoch (UTC): 25 May 2017 12:36:55
Eccentricity: 0.0013665
inclination: 99.0907°
perigee height: 842 km
apogee height: 862 km
right ascension of ascending node: 112.0311°
argument of perigee: 340.4263°
revolutions per day: 14.12181879
mean anomaly at epoch: 19.6382°
orbit number at epoch: 42719

The dashed part of the orbit path shows where the satellite is in the earth's shadow,  

DLR